SCP
0 0 0 0 0 0 0 0 0 0 0 0 0 0 0 0 0 1 1 1 1 1 1 1 1 2 2 2 1 1 1 1 2 2 3 4 4 3 3 3 3 2 2 2
0 0 0 0 0 0 0 0 0 0 0 0 0 0 0 0 0 0 1 1 1 1 1 1 1 1 1 1 1 1 1 2 2 2 3 4 5 4 3 3 3 3 2 2
0 0 0 0 0 0 0 0 0 0 0 0 0 0 0 0 0 0 1 1 1 1 1 1 1 1 1 1 1 1 1 2 2 2 3 4 5 5 4 4 4 3 2 2
0 0 0 0 0 0 0 0 0 0 0 0 0 0 0 0 0 0 0 1 1 1 1 1 1 1 1 1 1 1 1 2 2 2 2 3 5 4 4 4 4 4 3 2
0 0 0 0 0 0 0 0 0 0 0 0 0 0 0 0 0 0 0 1 1 1 1 1 1 1 1 1 1 1 2 2 2 2 2 3 3 4 3 3 3 3 2 2
0 0 0 0 0 0 0 0 0 0 0 0 0 0 0 0 0 0 0 1 1 1 1 1 1 1 1 1 1 1 2 2 2 2 2 2 2 2 2 2 2 2 2 1
0 0 0 0 0 0 0 0 0 0 0 0 0 0 0 0 0 0 0 1 1 1 1 1 1 1 1 1 1 2 2 2 2 2 2 2 2 2 2 2 2 1 1 1
0 0 0 0 0 0 0 0 0 0 0 0 0 0 0 0 0 1 1 1 1 1 1 1 1 1 1 1 1 2 3 3 3 3 2 2 2 2 2 2 1 1 1 1
0 0 0 0 0 0 0 0 0 0 0 0 0 0 0 1 1 1 1 1 1 1 1 1 0 0 1 1 2 3 4 4 4 3 3 2 1 1 2 2 1 1 1 1
0 0 0 0 0 0 0 0 0 0 0 0 0 0 0 1 1 1 2 2 2 2 1 1 1 1 1 1 2 3 4 4 4 4 3 2 2 2 2 1 1 1 1 1
0 0 0 0 0 0 0 0 0 0 0 0 0 0 1 1 1 1 2 2 2 2 2 1 1 1 1 2 2 3 4 4 4 4 4 3 3 2 1 1 1 1 1 1
0 0 0 0 0 0 0 0 0 0 0 0 0 1 1 1 1 1 2 2 2 2 2 2 1 1 2 2 3 4 5 5 5 5 5 4 3 2 1 0 0 0 1 1
0 0 0 0 0 0 0 0 0 0 0 0 0 0 1 1 1 1 1 1 1 1 2 2 2 2 2 3 4 4 5 5 5 5 4 4 3 2 1 0 0 0 0 0
0 0 0 0 0 0 0 0 0 0 0 0 0 0 0 0 0 0 0 0 0 1 1 2 2 2 3 3 4 5 5 5 5 5 4 3 3 2 1 1 0 0 0 0
0 0 0 0 0 0 0 0 0 0 0 0 0 0 0 0 0 0 0 0 0 1 1 2 2 3 3 4 5 5 5 5 5 5 4 4 3 2 1 1 1 1 0 0
0 0 0 0 0 0 0 0 0 0 0 0 0 0 0 0 0 0 0 0 0 1 1 2 2 3 4 4 5 5 5 4 4 5 5 4 3 2 1 1 1 1 1 1
0 0 0 0 0 0 0 0 0 0 0 0 0 0 0 0 0 0 0 0 1 1 1 2 2 3 3 3 3 4 3 3 3 4 4 3 2 2 1 1 1 1 1 1
0 0 0 0 0 0 0 0 0 0 0 0 0 0 0 0 0 0 0 0 0 1 1 1 2 2 2 2 1 1 1 1 1 2 2 1 1 1 1 1 1 1 1 1
0 0 0 0 0 0 0 0 0 0 0 0 0 0 0 0 0 0 0 0 0 1 1 1 1 1 1 1 0 0 0 0 0 1 0 0 0 1 1 1 1 1 1 1
0 0 0 0 0 0 0 0 0 0 0 0 0 0 0 0 0 0 0 0 0 0 0 0 0 0 0 0 0 0 0 0 0 0 0 0 0 0 1 1 1 1 1 1
0 0 0 0 0 0 0 0 0 0 0 0 0 0 0 0 0 0 0 0 0 0 0 0 0 0 0 0 0 0 0 0 0 0 0 0 0 1 1 1 1 1 1 1
0 0 0 0 0 0 0 0 0 0 0 0 0 0 0 0 0 0 0 0 0 0 0 0 0 0 0 0 0 0 0 0 0 0 0 0 0 0 0 1 1 1 1 0
0 0 0 0 0 0 0 0 0 0 0 0 0 0 0 0 0 0 0 0 0 0 0 0 0 0 0 0 0 0 0 0 0 0 0 0 0 0 0 1 1 0 0 0
0 0 0 0 0 0 0 0 0 0 0 0 0 0 0 0 0 0 0 0 0 0 0 0 0 0 0 0 0 0 0 0 0 0 0 0 0 0 0 0 0 0 0 0
0 0 0 0 0 0 0 0 0 0 0 0 0 0 0 0 0 0 0 0 0 0 0 0 0 0 0 0 0 0 0 0 0 0 0 0 0 0 0 0 0 0 0 0
0 0 0 0 0 0 0 0 0 0 0 0 0 0 0 0 0 0 0 0 0 0 0 0 0 0 0 0 0 0 0 0 0 0 0 0 0 0 0 0 0 0 0 0
0 0 0 0 0 0 0 0 0 0 0 0 0 0 0 0 0 0 0 0 0 0 0 0 0 0 0 0 0 0 0 0 0 0 0 0 0 0 0 0 0 0 0 0
Wind_Speed
8 7 8 10 10 11 13 13 13 12 11 10 8 6 5 5 4 4 4 3 4 4 5 5 5 5 5 5 6 6 7 7 6 6 6 6 6 6 6 5 5 5 5 5
9 7 8 12 13 13 14 14 14 14 13 8 7 7 6 6 5 5 5 5 5 5 5 6 6 6 5 6 6 7 7 7 6 6 5 6 6 6 6 5 5 5 5 5
8 5 8 12 10 12 11 10 11 12 10 6 7 7 6 5 5 6 5 5 6 6 6 6 7 7 6 6 7 7 7 7 6 6 6 6 6 6 6 6 6 6 6 6
6 7 10 4 0 5 8 9 9 10 8 7 7 7 6 5 5 6 6 6 6 6 6 6 6 7 6 6 7 7 7 7 7 7 6 6 7 7 6 6 6 6 5 5
6 8 10 7 5 6 8 8 7 8 7 6 5 6 5 4 5 6 6 6 6 6 6 5 6 6 7 7 7 8 8 8 8 7 7 7 7 7 7 6 6 6 6 6
7 9 9 4 2 3 6 8 4 6 5 4 4 6 4 3 4 6 6 5 5 5 5 5 5 6 7 8 8 9 8 8 8 8 8 8 8 7 6 6 6 6 6 7
12 11 9 2 2 4 8 3 1 4 4 5 6 6 5 5 5 5 5 5 4 4 5 5 5 6 8 8 9 8 7 7 7 8 8 8 7 7 6 6 6 6 6 6
10 11 9 3 5 7 4 3 3 4 5 6 7 6 6 6 5 5 5 5 4 4 5 5 5 7 7 8 7 6 7 7 8 8 7 6 7 6 7 6 6 7 6 6
8 7 4 4 6 6 6 7 6 6 6 7 7 7 7 7 6 5 5 5 5 5 5 4 5 7 8 6 6 6 7 8 7 8 7 7 7 7 7 7 6 6 6 6
9 9 8 8 8 8 8 8 8 7 7 7 8 8 7 7 6 6 5 5 5 5 6 5 5 6 6 5 6 7 8 8 7 7 7 7 6 6 7 7 6 6 6 6
12 11 10 9 8 9 8 7 7 7 7 8 8 8 8 7 7 6 5 5 5 6 6 6 5 6 6 5 6 7 7 7 7 7 7 7 7 6 7 7 7 7 7 6
10 9 9 9 8 8 8 8 7 7 7 7 7 8 8 7 7 6 6 5 6 6 7 6 5 5 5 6 6 6 6 6 6 5 5 6 6 5 4 6 6 8 8 7
11 11 11 11 10 9 8 8 8 7 7 7 7 7 8 7 7 7 7 7 7 6 6 6 5 5 5 6 6 7 6 6 5 5 6 6 6 6 5 4 6 8 9 10
10 10 11 10 10 9 9 8 8 8 8 7 6 6 7 7 7 8 7 7 6 6 6 6 5 5 5 5 6 7 7 6 6 5 6 6 6 6 6 6 6 5 7 10
10 10 10 10 9 9 8 7 7 8 7 7 6 6 7 7 7 7 7 6 6 6 6 6 6 5 4 5 6 7 6 5 5 5 5 6 6 6 6 7 6 5 4 5
9 9 9 9 8 8 8 8 7 7 6 7 6 6 7 7 7 6 6 5 6 6 5 5 5 4 4 5 5 5 5 5 5 5 5 6 6 6 6 6 6 5 5 5
8 8 8 9 9 9 8 8 7 7 7 7 7 7 6 6 6 5 5 5 5 5 4 5 4 4 4 5 5 4 4 4 5 5 5 5 5 6 6 6 5 5 5 5
8 9 9 9 9 9 8 8 7 7 7 6 6 6 6 5 5 5 4 3 4 4 3 3 3 3 4 4 4 3 3 3 4 4 4 5 5 5 5 5 6 6 4 5
7 7 7 7 7 7 8 8 7 7 6 5 5 5 5 5 4 4 4 3 3 4 3 2 2 3 3 3 3 3 3 3 3 3 3 4 4 4 5 5 5 5 5 5
6 6 6 6 7 6 6 6 6 5 5 4 4 4 4 4 4 4 3 3 3 3 2 2 2 2 2 2 2 3 3 3 3 2 2 3 3 4 4 4 4 5 5 4
6 6 6 6 6 6 6 6 5 5 5 4 4 4 4 3 3 3 2 2 2 2 1 1 1 1 1 1 2 2 2 2 2 2 2 2 3 3 4 4 4 4 4 4
6 5 6 6 6 6 6 5 5 4 4 4 3 3 3 3 3 2 2 2 1 1 1 1 1 1 1 0 1 1 1 1 1 1 2 2 2 3 3 3 3 3 4 4
6 6 6 6 6 6 6 5 5 4 4 4 3 3 3 3 2 2 2 2 1 1 1 1 1 2 2 1 0 0 1 1 1 1 1 2 2 2 2 3 3 3 3 3
7 6 6 6 5 5 5 5 5 4 4 4 3 3 3 2 2 2 2 2 2 2 1 1 1 1 1 0 0 0 0 0 1 1 1 1 2 2 2 2 2 2 3 4
6 6 6 5 5 4 4 4 4 4 3 3 3 3 3 2 2 2 2 2 2 1 1 1 2 1 1 0 1 1 1 1 1 1 1 1 1 2 2 1 2 2 2 2
6 5 4 4 4 4 3 3 3 3 3 2 3 3 3 2 2 2 2 2 2 2 2 1 1 1 1 1 1 1 1 1 1 1 2 1 2 2 2 2 2 2 2 2
5 4 4 4 3 3 3 3 3 3 3 3 3 3 3 2 2 2 2 2 2 2 2 2 1 1 1 1 1 1 1 1 1 1 2 2 2 2 1 2 1 1 1 1
Wind_Direction
265 273 266 266 262 250 247 255 263 271 273 271 264 265 271 278 278 272 265 255 239 223 220 212 209 206 202 202 195 195 196 200 204 200 197 198 195 194 197 199 201 199 198 199
257 256 261 265 261 254 252 255 257 264 266 271 263 259 257 262 265 264 259 252 249 237 228 222 215 208 205 206 198 197 199 198 196 196 192 195 196 196 193 194 201 203 204 202
262 264 270 259 250 242 242 244 253 259 267 268 256 250 253 261 260 261 263 261 255 243 232 231 224 212 208 206 197 197 198 193 192 194 190 194 194 192 194 198 202 206 209 207
264 261 251 270 292 253 255 256 253 262 272 262 262 259 256 261 260 265 269 266 258 252 245 242 229 218 210 205 200 199 198 194 192 194 192 196 195 195 200 202 201 207 211 212
245 257 266 258 234 232 246 259 256 251 259 265 270 255 240 254 265 270 273 271 266 260 253 245 230 215 209 206 201 201 201 199 194 194 194 197 199 200 203 203 203 207 207 209
233 250 258 257 169 213 257 255 233 231 244 256 253 254 263 290 276 278 281 281 276 263 255 244 231 216 211 211 206 207 205 204 197 196 197 202 203 202 203 205 208 210 208 212
237 248 259 269 170 203 235 273 162 228 246 244 249 286 309 301 287 280 281 281 276 260 248 241 228 217 218 214 213 213 206 203 200 200 201 204 204 200 200 203 207 213 210 212
229 240 246 158 188 222 277 324 291 276 271 263 270 288 293 290 287 282 280 278 269 261 252 243 229 220 222 222 215 208 202 202 203 202 202 201 199 199 202 201 205 211 213 213
243 255 293 231 242 274 289 280 280 280 277 272 269 275 281 280 277 274 273 271 264 260 258 249 232 225 224 222 212 202 201 204 205 202 202 200 198 197 200 203 210 213 211 213
254 256 266 270 270 274 274 274 276 276 274 269 269 271 272 273 272 269 267 267 263 254 252 250 238 231 230 217 208 204 204 205 202 203 203 203 202 203 203 204 208 215 214 216
260 268 276 265 268 275 278 275 274 275 272 269 269 269 267 270 270 269 264 259 255 249 246 247 240 232 222 211 205 210 209 209 207 207 206 206 208 210 212 213 212 216 221 218
265 278 281 284 291 292 283 276 273 273 274 269 265 266 268 268 269 267 264 260 253 249 248 246 238 232 220 211 206 209 210 209 209 207 207 209 210 213 223 228 219 228 237 235
275 286 285 284 287 284 278 276 273 270 272 274 270 265 264 265 264 262 260 255 249 250 250 246 237 231 223 213 212 214 215 212 209 209 208 210 212 213 217 216 217 226 227 225
274 276 273 273 279 284 282 279 278 274 271 269 270 269 265 265 263 259 257 255 252 250 246 243 238 234 224 216 216 220 222 218 216 214 212 212 215 216 217 217 216 221 217 213
275 274 274 281 284 286 285 281 277 274 273 272 268 265 263 262 262 261 263 260 253 248 244 242 239 236 222 218 219 221 220 216 216 217 215 214 215 216 217 220 221 219 214 200
287 286 280 279 282 288 286 279 276 277 274 274 274 269 267 267 267 265 260 250 243 242 242 241 241 236 224 222 221 222 220 219 223 220 217 215 215 215 215 217 219 218 216 207
286 287 289 289 289 290 289 288 288 285 281 276 277 277 271 266 263 262 257 251 250 250 246 243 243 232 225 224 222 222 218 212 216 221 218 217 217 218 216 216 218 219 222 209
284 285 286 286 286 289 292 294 294 293 289 286 281 275 268 260 261 266 267 265 259 256 257 255 245 230 224 225 225 223 219 220 222 226 221 219 218 218 216 216 216 220 222 201
292 293 296 297 296 292 293 294 296 296 294 289 280 272 268 266 266 269 269 265 263 262 267 262 263 233 224 224 237 225 223 223 225 229 226 214 215 215 213 213 214 216 214 204
311 313 313 312 309 303 299 299 300 301 303 301 295 286 277 273 270 266 265 268 274 285 289 276 242 231 222 218 240 227 221 221 221 223 226 222 219 218 216 212 212 213 211 207
319 320 317 315 315 313 308 302 300 301 305 305 294 286 283 283 276 271 269 275 293 300 297 290 258 243 222 220 230 220 212 214 221 228 229 225 219 217 216 212 209 210 209 206
317 319 318 319 320 321 321 318 315 311 310 311 305 298 294 292 290 289 284 286 304 324 281 264 278 12 17 341 200 193 210 222 226 230 230 231 225 219 214 213 213 212 209 205
315 317 317 318 319 318 323 324 322 316 312 312 312 313 306 306 302 288 293 314 316 342 320 323 14 35 19 357 58 184 221 229 230 236 237 236 240 235 221 216 216 212 211 209
312 313 313 316 318 318 322 326 322 316 316 317 319 318 311 311 318 316 316 346 358 349 329 18 29 26 2 296 293 250 236 254 253 247 245 241 239 241 233 225 221 217 217 214
306 306 309 313 314 313 313 316 317 316 317 319 327 333 328 326 321 322 324 337 5 1 340 27 27 349 303 303 313 307 294 277 266 258 249 242 243 245 244 243 243 239 233 224
303 302 300 298 302 302 302 305 307 309 309 316 329 332 334 338 333 319 325 344 352 350 323 320 317 309 307 314 306 293 279 266 265 266 259 254 247 244 237 233 239 244 242 230
297 298 295 295 299 301 301 299 301 307 312 315 322 323 322 323 327 334 332 330 333 338 334 329 327 326 314 302 292 286 280 275 267 263 263 261 256 245 233 234 239 239 238 225